FW7042 Weather Reports


time (UTC)temp
C
wind
direction
speed
KPH
gust
KPH
rain 1hr
cm
rain 24hr
cm
rain mn
cm
humidity
%
barometer
mb
20260906214543 35 135 8.0 11.3 0.00 0.00 0.00 30 1015.7
20260906214039 35 177 8.0 11.3 0.00 0.00 0.00 30 1015.7
20260906213538 35 145 6.4 8.0 0.00 0.00 0.00 30 1015.6
20260906213032 35 137 4.8 9.7 0.00 0.00 0.00 30 1015.7
20260906212526 35 146 8.0 14.5 0.00 0.00 0.00 31 1015.8
20260906212022 35 199 1.6 3.2 0.00 0.00 0.00 31 1016.0
20260906211516 36 222 1.6 3.2 0.00 0.00 0.00 29 1016.1
20260906211011 35 149 4.8 8.0 0.00 0.00 0.00 30 1016.5
20260906210507 35 110 1.6 3.2 0.00 0.00 0.00 31 1016.2
20260906210006 36 191 4.8 11.3 0.00 0.00 0.00 30 1016.5
20260906205502 37 163 4.8 4.8 0.00 0.00 0.00 29 1016.3
20260906204958 37 265 4.8 8.0 0.00 0.00 0.00 29 1016.6
20260906204457 36 196 4.8 4.8 0.00 0.00 0.00 30 1016.5
20260906203956 36 263 3.2 3.2 0.00 0.00 0.00 31 1016.7
20260906203452 35 133 9.7 11.3 0.00 0.00 0.00 31 1016.7
20260906202949 35 227 4.8 8.0 0.00 0.00 0.00 30 1016.5
20260906202442 35 134 6.4 8.0 0.00 0.00 0.00 31 1016.9
20260906201937 35 93 8.0 11.3 0.00 0.00 0.00 31 1016.7
20260906201432 35 181 4.8 4.8 0.00 0.00 0.00 31 1016.8
20260906200927 35 219 0.0 1.6 0.00 0.00 0.00 30 1016.8
20260906200424 35 202 8.0 11.3 0.00 0.00 0.00 32 1017.2
20260906195923 35 108 8.0 9.7 0.00 0.00 0.00 32 1017.1
20260906195420 35 179 3.2 4.8 0.00 0.00 0.00 32 1017.2
20260906194916 33 127 8.0 11.3 0.00 0.00 0.00 33 1017.1
20260906194411 34 99 6.4 8.0 0.00 0.00 0.00 34 1017.1
20260906193906 35 158 4.8 4.8 0.00 0.00 0.00 33 1017.3
20260906193401 34 138 0.0 3.2 0.00 0.00 0.00 33 1017.1
20260906192857 35 225 1.6 3.2 0.00 0.00 0.00 32 1017.3
20260906192356 35 227 4.8 4.8 0.00 0.00 0.00 31 1017.4
20260906191856 34 126 11.3 14.5 0.00 0.00 0.00 32 1017.4
20260906191350 35 78 9.7 11.3 0.00 0.00 0.00 32 1017.6
20260906190850 34 176 8.0 9.7 0.00 0.00 0.00 32 1017.8
20260906190344 34 195 4.8 4.8 0.00 0.00 0.00 32 1017.7
20260906185839 35 118 8.0 12.9 0.00 0.00 0.00 32 1017.8
20260906185338 35 162 4.8 4.8 0.00 0.00 0.00 32 1018.0
20260906184837 35 162 8.0 9.7 0.00 0.00 0.00 31 1018.0
20260906184333 33 227 4.8 8.0 0.00 0.00 0.00 33 1018.0
20260906183828 34 134 6.4 11.3 0.00 0.00 0.00 34 1018.0
20260906183324 33 55 4.8 4.8 0.00 0.00 0.00 34 1017.8
20260906182819 34 234 4.8 8.0 0.00 0.00 0.00 34 1018.2
20260906182314 33 146 8.0 9.7 0.00 0.00 0.00 34 1018.1
20260906181809 34 108 14.5 17.7 0.00 0.00 0.00 33 1018.4
20260906181305 34 106 6.4 8.0 0.00 0.00 0.00 35 1018.3
20260906180800 34 99 6.4 8.0 0.00 0.00 0.00 34 1018.4
20260906180255 34 211 4.8 4.8 0.00 0.00 0.00 34 1018.7
20260906175752 33 189 4.8 8.0 0.00 0.00 0.00 35 1018.5
20260906175249 34 34 8.0 12.9 0.00 0.00 0.00 35 1018.8
20260906174746 33 82 8.0 11.3 0.00 0.00 0.00 35 1018.9
20260906174246 33 132 3.2 3.2 0.00 0.00 0.00 36 1018.5
20260906173747 33 108 8.0 11.3 0.00 0.00 0.00 35 1018.7
20260906173243 33 69 9.7 12.9 0.00 0.00 0.00 36 1018.9
20260906172741 33 137 4.8 8.0 0.00 0.00 0.00 37 1018.9
20260906172237 33 119 4.8 12.9 0.00 0.00 0.00 36 1018.9
20260906171732 33 222 3.2 3.2 0.00 0.00 0.00 36 1019.0
20260906171228 32 224 8.0 9.7 0.00 0.00 0.00 38 1019.0
20260906170724 33 151 3.2 3.2 0.00 0.00 0.00 39 1018.8
20260906170218 33 215 8.0 11.3 0.00 0.00 0.00 37 1018.9
20260906165715 33 158 1.6 3.2 0.00 0.00 0.00 37 1018.9
20260906165209 33 127 3.2 4.8 0.00 0.00 0.00 38 1018.8
20260906164709 33 104 8.0 9.7 0.00 0.00 0.00 37 1019.3
20260906164204 33 10 3.2 8.0 0.00 0.00 0.00 38 1019.0
20260906163700 33 191 0.0 0.0 0.00 0.00 0.00 39 1019.1
20260906163156 33 214 1.6 1.6 0.00 0.00 0.00 38 1019.2
20260906162653 33 248 1.6 3.2 0.00 0.00 0.00 39 1019.0
20260906162152 33 206 0.0 1.6 0.00 0.00 0.00 41 1019.1
20260906161647 33 141 4.8 4.8 0.00 0.00 0.00 40 1019.1
20260906161146 33 158 1.6 3.2 0.00 0.00 0.00 40 1019.0
20260906160646 33 138 1.6 3.2 0.00 0.00 0.00 40 1018.9
20260906160144 32 221 0.0 0.0 0.00 0.00 0.00 41 1019.1
20260906155641 32 209 1.6 1.6 0.00 0.00 0.00 43 1018.9
20260906155138 32 190 0.0 1.6 0.00 0.00 0.00 43 1018.9
20260906154633 32 173 4.8 8.0 0.00 0.00 0.00 43 1019.0
20260906154132 32 181 1.6 3.2 0.00 0.00 0.00 45 1018.8
20260906153631 32 138 4.8 4.8 0.00 0.00 0.00 44 1018.8
20260906153126 31 215 3.2 3.2 0.00 0.00 0.00 46 1018.8
20260906152621 32 205 0.0 0.0 0.00 0.00 0.00 45 1018.7
20260906152121 31 202 0.0 0.0 0.00 0.00 0.00 47 1018.8
20260906151615 31 194 1.6 3.2 0.00 0.00 0.00 47 1018.8
20260906151112 30 213 3.2 3.2 0.00 0.00 0.00 49 1019.0
20260906150607 30 176 3.2 4.8 0.00 0.00 0.00 49 1018.7
20260906145601 29 162 1.6 1.6 0.00 0.00 0.00 51 1018.9
20260906145055 28 179 1.6 1.6 0.00 0.00 0.00 52 1018.5
20260906144550 28 151 4.8 8.0 0.00 0.00 0.00 52 1018.9
20260906144045 28 168 3.2 4.8 0.00 0.00 0.00 52 1018.5
20260906143540 28 162 4.8 4.8 0.00 0.00 0.00 52 1018.5
20260906143032 28 177 3.2 4.8 0.00 0.00 0.00 52 1018.5
20260906142530 28 166 4.8 4.8 0.00 0.00 0.00 52 1018.7
20260906142027 28 217 3.2 3.2 0.00 0.00 0.00 53 1018.5
20260906141525 27 207 1.6 1.6 0.00 0.00 0.00 54 1018.7
20260906141021 27 222 3.2 3.2 0.00 0.00 0.00 55 1018.5
20260906140514 27 179 3.2 4.8 0.00 0.00 0.00 56 1018.7
20260906140014 27 183 1.6 1.6 0.00 0.00 0.00 56 1018.7
20260906135511 27 150 4.8 4.8 0.00 0.00 0.00 56 1018.7
20260906135007 26 206 0.0 1.6 0.00 0.00 0.00 57 1018.4
20260906134456 26 197 0.0 0.0 0.00 0.00 0.00 58 1018.3
20260906133956 26 187 1.6 3.2 0.00 0.00 0.00 59 1018.2
20260906133453 25 207 0.0 1.6 0.00 0.00 0.00 60 1018.4
20260906132948 25 194 3.2 3.2 0.00 0.00 0.00 61 1018.3
20260906132443 25 190 1.6 1.6 0.00 0.00 0.00 61 1018.1
20260906131938 25 208 0.0 0.0 0.00 0.00 0.00 62 1018.2
20260906131433 24 200 0.0 0.0 0.00 0.00 0.00 64 1018.2
20260906130929 24 167 3.2 4.8 0.00 0.00 0.00 64 1018.2
20260906130428 23 190 0.0 0.0 0.00 0.00 0.00 65 1018.0
20260906125923 23 197 0.0 1.6 0.00 0.00 0.00 66 1018.1
20260906125420 23 197 0.0 0.0 0.00 0.00 0.00 66 1018.0
20260906124919 23 210 1.6 1.6 0.00 0.00 0.00 68 1018.1
20260906124415 22 184 0.0 0.0 0.00 0.00 0.00 69 1018.0
20260906123910 22 203 0.0 0.0 0.00 0.00 0.00 70 1018.0
20260906123410 22 184 0.0 1.6 0.00 0.00 0.00 70 1017.9
20260906122910 22 197 0.0 0.0 0.00 0.00 0.00 70 1017.8
20260906122404 22 213 0.0 0.0 0.00 0.00 0.00 70 1017.8
20260906121902 22 199 0.0 0.0 0.00 0.00 0.00 70 1017.6
20260906121357 22 208 0.0 0.0 0.00 0.00 0.00 69 1017.8
20260906120853 22 213 0.0 0.0 0.00 0.00 0.00 69 1017.6
20260906120348 22 226 1.6 3.2 0.00 0.00 0.00 69 1017.4
20260906115839 22 209 0.0 0.0 0.00 0.00 0.00 68 1017.6
20260906115334 22 211 0.0 0.0 0.00 0.00 0.00 68 1017.6
20260906114833 22 208 0.0 0.0 0.00 0.00 0.00 68 1017.7
20260906114329 22 205 0.0 0.0 0.00 0.00 0.00 67 1017.4
20260906113824 22 206 1.6 3.2 0.00 0.00 0.00 67 1017.3
20260906113323 22 178 1.6 1.6 0.00 0.00 0.00 67 1017.3
20260906112818 23 209 0.0 1.6 0.00 0.00 0.00 66 1017.4
20260906112315 23 228 0.0 1.6 0.00 0.00 0.00 66 1017.2
20260906111814 23 215 4.8 4.8 0.00 0.00 0.00 66 1017.2
20260906111313 23 187 0.0 0.0 0.00 0.00 0.00 66 1017.3
20260906110809 23 212 0.0 0.0 0.00 0.00 0.00 66 1017.1
20260906110305 23 165 3.2 3.2 0.00 0.00 0.00 66 1017.3
20260906105804 23 156 1.6 3.2 0.00 0.00 0.00 65 1017.3
20260906105259 23 196 0.0 0.0 0.00 0.00 0.00 65 1017.2
20260906104755 23 210 0.0 1.6 0.00 0.00 0.00 65 1017.3
20260906104254 23 191 0.0 0.0 0.00 0.00 0.00 65 1017.3
20260906103752 23 214 0.0 0.0 0.00 0.00 0.00 65 1017.2
20260906103251 23 214 0.0 0.0 0.00 0.00 0.00 64 1017.2
20260906102748 23 207 0.0 0.0 0.00 0.00 0.00 64 1017.1
20260906102246 23 206 0.0 0.0 0.00 0.00 0.00 63 1016.8
20260906101742 23 203 0.0 0.0 0.00 0.00 0.00 63 1017.0
20260906101236 23 202 0.0 0.0 0.00 0.00 0.00 63 1017.0
20260906100732 23 206 0.0 0.0 0.00 0.00 0.00 62 1017.0
20260906100231 23 214 0.0 0.0 0.00 0.00 0.00 62 1017.1
20260906095727 23 214 0.0 1.6 0.00 0.00 0.00 62 1016.9
20260906095222 23 198 0.0 0.0 0.00 0.00 0.00 61 1016.7
20260906094721 24 218 0.0 1.6 0.00 0.00 0.00 61 1017.1
20260906094216 24 220 0.0 0.0 0.00 0.00 0.00 60 1017.0
20260906093712 24 202 1.6 1.6 0.00 0.00 0.00 60 1017.0
20260906093208 24 212 3.2 3.2 0.00 0.00 0.00 59 1016.8
20260906092703 24 222 0.0 0.0 0.00 0.00 0.00 59 1016.9
20260906092202 25 159 1.6 4.8 0.00 0.00 0.00 59 1017.0
20260906091658 25 221 0.0 0.0 0.00 0.00 0.00 59 1016.9
20260906091154 25 210 0.0 1.6 0.00 0.00 0.00 58 1016.9
20260906090650 25 210 1.6 3.2 0.00 0.00 0.00 58 1016.5
20260906090149 25 170 1.6 3.2 0.00 0.00 0.00 58 1016.7
20260906085648 25 289 1.6 3.2 0.00 0.00 0.00 57 1016.6
20260906085143 25 220 1.6 1.6 0.00 0.00 0.00 57 1016.7
20260906084638 25 210 1.6 1.6 0.00 0.00 0.00 56 1016.5
20260906084137 25 242 3.2 4.8 0.00 0.00 0.00 56 1016.5
20260906083632 25 207 1.6 1.6 0.00 0.00 0.00 56 1016.6
20260906083127 25 232 1.6 3.2 0.00 0.00 0.00 56 1016.3
20260906082623 25 185 0.0 1.6 0.00 0.00 0.00 55 1016.6
20260906082118 25 192 1.6 1.6 0.00 0.00 0.00 54 1016.6
20260906081614 26 185 1.6 1.6 0.00 0.00 0.00 54 1016.8
20260906081108 26 206 3.2 3.2 0.00 0.00 0.00 53 1016.8
20260906080605 26 151 3.2 3.2 0.00 0.00 0.00 53 1016.7
20260906075555 26 183 4.8 4.8 0.00 0.00 0.00 52 1016.8
20260906075050 26 186 3.2 3.2 0.00 0.00 0.00 52 1016.7
20260906074545 26 176 3.2 3.2 0.00 0.00 0.00 51 1016.7
20260906074043 26 219 1.6 3.2 0.00 0.00 0.00 51 1016.9
20260906073538 26 180 3.2 4.8 0.00 0.00 0.00 51 1016.9
20260906073034 26 175 0.0 0.0 0.00 0.00 0.00 50 1016.9
20260906072529 26 209 1.6 1.6 0.00 0.00 0.00 50 1016.8
20260906072025 27 159 3.2 3.2 0.00 0.00 0.00 50 1016.7
20260906071521 27 137 3.2 4.8 0.00 0.00 0.00 49 1016.8
20260906071016 27 93 4.8 8.0 0.00 0.00 0.00 49 1016.9
20260906070512 27 151 4.8 4.8 0.00 0.00 0.00 48 1016.9
20260906070007 27 158 3.2 4.8 0.00 0.00 0.00 48 1017.1
20260906065501 27 195 3.2 4.8 0.00 0.00 0.00 47 1016.9
20260906064957 27 192 4.8 8.0 0.00 0.00 0.00 47 1016.7
20260906064453 27 164 4.8 4.8 0.00 0.00 0.00 47 1016.9
20260906063948 27 172 8.0 9.7 0.00 0.00 0.00 47 1016.9
20260906063444 27 113 6.4 8.0 0.00 0.00 0.00 46 1016.7
20260906062943 27 193 1.6 3.2 0.00 0.00 0.00 46 1016.9
20260906062439 28 84 4.8 4.8 0.00 0.00 0.00 46 1017.1
20260906061933 28 158 6.4 8.0 0.00 0.00 0.00 46 1017.0
20260906061430 28 187 1.6 3.2 0.00 0.00 0.00 45 1017.1
20260906060924 28 142 4.8 9.7 0.00 0.00 0.00 45 1017.2
20260906060421 28 160 1.6 3.2 0.00 0.00 0.00 45 1017.0
20260906055917 28 194 1.6 3.2 0.00 0.00 0.00 45 1016.8
20260906055413 28 119 3.2 3.2 0.00 0.00 0.00 45 1017.3
20260906054908 28 86 1.6 1.6 0.00 0.00 0.00 45 1017.1
20260906054403 28 168 4.8 8.0 0.00 0.00 0.00 45 1017.1
20260906053859 28 139 4.8 4.8 0.00 0.00 0.00 45 1017.3
20260906053354 28 117 4.8 8.0 0.00 0.00 0.00 45 1017.3
20260906052850 28 159 3.2 3.2 0.00 0.00 0.00 44 1017.3
20260906052346 28 140 8.0 11.3 0.00 0.00 0.00 44 1017.2
20260906051843 28 192 3.2 3.2 0.00 0.00 0.00 44 1017.3
20260906051342 28 161 4.8 8.0 0.00 0.00 0.00 44 1017.1
20260906050839 28 125 4.8 8.0 0.00 0.00 0.00 44 1017.2
20260906050333 28 172 3.2 3.2 0.00 0.00 0.00 44 1017.0
20260906045832 28 191 1.6 3.2 0.00 0.00 0.00 44 1017.3
20260906045326 28 212 1.6 3.2 0.00 0.00 0.00 44 1017.3
20260906044822 28 185 0.0 1.6 0.00 0.00 0.00 44 1017.1
20260906044316 29 169 3.2 4.8 0.00 0.00 0.00 43 1017.1
20260906043812 29 131 4.8 4.8 0.00 0.00 0.00 43 1017.1
20260906043308 29 167 4.8 4.8 0.00 0.00 0.00 42 1017.3
20260906042803 29 138 1.6 3.2 0.00 0.00 0.00 42 1017.2
20260906042306 30 211 1.6 1.6 0.00 0.00 0.00 42 1017.1
20260906041758 30 203 1.6 1.6 0.00 0.00 0.00 42 1017.1
20260906041252 30 118 4.8 4.8 0.00 0.00 0.00 42 1017.0
20260906040748 30 177 4.8 4.8 0.00 0.00 0.00 42 1016.9
20260906040243 30 208 1.6 3.2 0.00 0.00 0.00 41 1016.8
20260906035738 30 119 4.8 4.8 0.00 0.00 0.00 41 1016.9
20260906035234 30 117 3.2 8.0 0.00 0.00 0.00 41 1017.0
20260906034734 30 214 3.2 3.2 0.00 0.00 0.00 41 1017.0
20260906034229 30 148 3.2 3.2 0.00 0.00 0.00 40 1016.9
20260906033724 30 213 3.2 3.2 0.00 0.00 0.00 40 1017.0
20260906033218 31 261 3.2 4.8 0.00 0.00 0.00 39 1016.9
20260906032715 31 201 4.8 4.8 0.00 0.00 0.00 39 1016.6
20260906032209 31 167 4.8 4.8 0.00 0.00 0.00 39 1016.6
20260906031705 31 175 6.4 8.0 0.00 0.00 0.00 39 1016.9
20260906031200 31 216 4.8 4.8 0.00 0.00 0.00 39 1016.5
20260906030659 31 138 8.0 9.7 0.00 0.00 0.00 38 1016.5
20260906030154 31 159 4.8 8.0 0.00 0.00 0.00 38 1016.1
20260906025654 31 117 4.8 8.0 0.00 0.00 0.00 38 1016.2
20260906025148 31 165 4.8 4.8 0.00 0.00 0.00 37 1016.2
20260906024642 31 119 1.6 3.2 0.00 0.00 0.00 37 1016.0
20260906024136 31 119 8.0 11.3 0.00 0.00 0.00 37 1016.0
20260906023633 31 180 1.6 3.2 0.00 0.00 0.00 36 1015.8
20260906023132 31 193 0.0 1.6 0.00 0.00 0.00 36 1015.8
20260906022627 31 220 3.2 4.8 0.00 0.00 0.00 36 1015.8
20260906022123 31 140 1.6 4.8 0.00 0.00 0.00 36 1015.6
20260906021619 32 214 1.6 3.2 0.00 0.00 0.00 36 1015.7
20260906021117 32 176 3.2 4.8 0.00 0.00 0.00 35 1015.6
20260906020617 32 167 1.6 3.2 0.00 0.00 0.00 35 1015.6
20260906020112 32 197 4.8 4.8 0.00 0.00 0.00 35 1015.6
20260906015611 32 105 3.2 8.0 0.00 0.00 0.00 35 1015.1
20260906015105 32 139 4.8 8.0 0.00 0.00 0.00 35 1015.5
20260906014600 32 178 1.6 1.6 0.00 0.00 0.00 34 1015.4
20260906014056 32 133 4.8 8.0 0.00 0.00 0.00 34 1015.0
20260906013551 33 161 3.2 3.2 0.00 0.00 0.00 34 1015.2
20260906013047 33 230 1.6 3.2 0.00 0.00 0.00 33 1015.0
20260906012542 33 178 1.6 3.2 0.00 0.00 0.00 33 1015.0
20260906012041 33 143 8.0 9.7 0.00 0.00 0.00 33 1015.0
20260906011538 33 158 4.8 8.0 0.00 0.00 0.00 33 1015.0
20260906011037 33 121 8.0 9.7 0.00 0.00 0.00 33 1014.7
20260906010532 33 111 8.0 11.3 0.00 0.00 0.00 33 1015.0
20260906010029 33 107 8.0 12.9 0.00 0.00 0.00 32 1015.0
20260906005527 33 115 6.4 12.9 0.00 0.00 0.00 32 1014.5
20260906005027 33 217 4.8 8.0 0.00 0.00 0.00 32 1014.5
20260906004526 34 117 6.4 8.0 0.00 0.00 0.00 32 1014.6
20260906004021 34 111 6.4 8.0 0.00 0.00 0.00 32 1014.7
20260906003516 34 149 8.0 12.9 0.00 0.00 0.00 31 1014.5
20260906003013 35 169 8.0 11.3 0.00 0.00 0.00 31 1014.6
20260906002507 35 132 9.7 12.9 0.00 0.00 0.00 30 1014.5
20260906002002 35 207 3.2 4.8 0.00 0.00 0.00 30 1014.5
20260906001457 35 135 1.6 1.6 0.00 0.00 0.00 30 1014.3
20260906000951 35 159 4.8 4.8 0.00 0.00 0.00 30 1014.4
20260906000442 35 168 8.0 9.7 0.00 0.00 0.00 30 1014.5
20260905235941 35 242 4.8 8.0 0.00 0.00 0.00 29 1014.4
20260905235436 35 112 4.8 8.0 0.00 0.00 0.00 30 1014.4
20260905234931 35 158 8.0 12.9 0.00 0.00 0.00 30 1014.1
20260905234427 35 134 8.0 9.7 0.00 0.00 0.00 30 1014.0
20260905233926 35 155 6.4 9.7 0.00 0.00 0.00 30 1013.8
20260905233422 36 140 3.2 3.2 0.00 0.00 0.00 30 1013.9
20260905232920 36 132 4.8 4.8 0.00 0.00 0.00 29 1014.1
20260905232417 36 128 9.7 11.3 0.00 0.00 0.00 29 1014.0
20260905231906 36 102 4.8 8.0 0.00 0.00 0.00 29 1014.0
20260905231402 36 239 4.8 4.8 0.00 0.00 0.00 28 1014.1
20260905230859 36 88 6.4 11.3 0.00 0.00 0.00 29 1013.9
20260905230356 36 144 4.8 4.8 0.00 0.00 0.00 28 1014.1
20260905225855 36 111 4.8 8.0 0.00 0.00 0.00 29 1014.1
20260905225350 36 174 3.2 3.2 0.00 0.00 0.00 28 1014.0
20260905224845 36 41 6.4 11.3 0.00 0.00 0.00 28 1014.1
20260905224341 36 132 4.8 8.0 0.00 0.00 0.00 29 1014.1
20260905223835 37 133 4.8 8.0 0.00 0.00 0.00 28 1014.0
20260905223333 37 155 8.0 12.9 0.00 0.00 0.00 28 1014.0
20260905222828 37 172 4.8 4.8 0.00 0.00 0.00 29 1014.1
20260905222327 37 93 8.0 11.3 0.00 0.00 0.00 29 1014.1
20260905221824 37 119 4.8 4.8 0.00 0.00 0.00 29 1014.0
20260905221320 37 113 8.0 9.7 0.00 0.00 0.00 29 1014.1
20260905220816 37 212 8.0 9.7 0.00 0.00 0.00 29 1014.1
20260905220312 37 106 6.4 11.3 0.00 0.00 0.00 28 1014.1
20260905215811 37 162 4.8 8.0 0.00 0.00 0.00 28 1014.5
20260905215306 37 193 3.2 3.2 0.00 0.00 0.00 29 1014.4